Location: Unspecified
(33.2407°S, 0.0000°E)
Time: 13:55:33
(UTC+00:00)

AO-7 - Visible Passes

Search period start: 21 July 2019 00:00
Search period end: 31 July 2019 00:00
Orbit: 1440 x 1458 km, 101.7° (Epoch: 20 July)

Date Brightness Start Highest point End Pass type
(mag) Time Alt. Az. Time Alt. Az. Time Alt. Az.
22 Jul ? 18:07:26 10° SW 18:09:47 11° SW 18:12:08 10° WSW visible
24 Jul ? 17:59:34 10° SSW 18:02:57 13° SW 18:06:20 10° WSW visible
26 Jul ? 17:51:59 10° SSW 17:56:07 15° SW 18:00:15 10° W visible
28 Jul ? 17:44:31 10° SSW 17:49:16 17° SW 17:54:01 10° W visible
30 Jul ? 17:37:09 10° SSW 17:42:24 19° SW 17:47:40 10° W visible
